2016 QU1 = 2010 GJ179

Initial reported observation by WISE on 2010-04-03.
(Discoverer will be defined when the object is numbered. See this note on how discoverers are determined.)

Orbit

Orbit type: Apollo
Near-Earth Object

Note: WebGL enabled browser required.

epoch2020-05-31.0
epoch JD2459000.5
perihelion date2020-02-11.73225
perihelion JD2458891.23225
argument of perihelion (°)190.71336
ascending node (°)259.37638
inclination (°)23.34244
eccentricity0.9049451
perihelion distance (AU)0.2119431
Tisserand w.r.t. Jupiter2.8
ΔV w.r.t. Earth (km/sec)12.9
semimajor axis (AU)2.2296925
mean anomaly (°)32.34658
mean daily motion (°/day)0.29603040
aphelion distance (AU)4.247
period (years)3.33
P-vector [x]0.01338791
P-vector [y]0.94420636
P-vector [z]0.32908223
Q-vector [x]-0.92095699
Q-vector [y]0.13982271
Q-vector [z]-0.36371395
absolute magnitude19.2
phase slope0.15
uncertainty2
referenceMPO 554823
observations used106
oppositions3
arc length (days)3725
first opposition used2010
last opposition used2020
residual rms (arc-secs)0.58
perturbers coarse indicatorM-v
perturbers precise indicator003Eh
first observation date used2010-04-03.0
last observation date used2020-06-14.0
computer nameMPCLINUX
JD of orbit computation2458570.259120
perihelion JD uncertainty (days)7.4625E-05
argument of perihelion uncertainty (°)1.1585E-04
ascending node uncertainty (°)1.5820E-04
inclination uncertainty (°)6.2417E-05
eccentricity uncertainty 1.6762E-07
perihelion distance uncertainty (AU)3.6615E-07
Minimum Orbit Intersection Distances (in AU)
for orbit epoch: 2459000.5, reference: E2020-L60
Mercury0.08715
Venus0.25169
Earth0.24616
Mars0.24795
Jupiter1.05793
Saturn5.83473
Uranus14.9344
Neptune26.0651

Observations

106 total observations over interval: 2010 04 03.436981 – 2020 06 14.31173
These data are available for download (format description).

Date (UT) J2000 RA J2000 Dec Magn Location Ref
2010 04 03.436981 19 16 19.800 -41 38 21.08   C51 – WISE MPS 924383
2010 04 03.569286 19 15 55.464 -41 39 21.46   C51 – WISE MPS 924383
2010 04 03.701590 19 15 31.068 -41 40 22.15   C51 – WISE MPS 924383
2010 04 03.833895 19 15 06.530 -41 41 20.65   C51 – WISE MPS 924383
2010 04 04.032414 19 14 29.664 -41 42 49.54   C51 – WISE MPS 924383
2016 07 13.409840 20 14 45.602 +13 59 47.34 21.4 G F51 – Pan-STARRS 1, Haleakala MPS 980190
2016 07 13.421919 20 14 43.670 +14 00 02.91 20.7 G F51 – Pan-STARRS 1, Haleakala MPS 980190
2016 07 13.434016 20 14 41.733 +14 00 18.58 21.1 G F51 – Pan-STARRS 1, Haleakala MPS 980190
2016 07 13.446153 20 14 39.759 +14 00 34.17 20.9 G F51 – Pan-STARRS 1, Haleakala MPS 980190
2016 08 18.312786 17 27 26.771 +22 50 53.69 20.2 G F51 – Pan-STARRS 1, Haleakala MPS 980190
2016 08 18.326071 17 27 21.890 +22 50 52.53 20.1 G F51 – Pan-STARRS 1, Haleakala MPS 980190
2016 08 18.339373 17 27 16.987 +22 50 51.23 20.2 G F51 – Pan-STARRS 1, Haleakala MPS 980190
2016 08 21.54597 17 08 00.17 +22 40 36.3 19 R C51 – WISE MPS 725701
2016 08 21.67700 17 07 13.14 +22 39 57.2   C51 – WISE MPS 725701
2016 08 21.80803 17 06 25.92 +22 39 15.4   C51 – WISE MPS 725701
2016 08 21.87349 17 06 02.46 +22 38 56.1   C51 – WISE MPS 725701
2016 08 22.00452 17 05 15.37 +22 38 11.8   C51 – WISE MPS 725701
2016 08 23.166461 16 58 18.46 +22 30 55.6 20.0 V H21 – Astronomical Research Observatory, Westfield MPS 725701
2016 08 23.174727 16 58 15.48 +22 30 51.7 20.0 V H21 – Astronomical Research Observatory, Westfield MPS 725701
2016 08 23.180772 16 58 13.32 +22 30 49.1 20.5 V H21 – Astronomical Research Observatory, Westfield MPS 725701
2016 08 23.187919 16 58 10.76 +22 30 46.1 20.0 V H21 – Astronomical Research Observatory, Westfield MPS 725701
2016 08 23.85943 16 54 11.53 +22 25 56.8 20.3 V 595 – Farra d'Isonzo MPS 725701
2016 08 23.86278 16 54 10.34 +22 25 55.8 19.7 R 203 – GiaGa Observatory MPS 725701
2016 08 23.86453 16 54 10.03 +22 26 00.9 20.1 V G40 – Slooh.com Canary Islands Observatory MPS 725701
2016 08 23.86458 16 54 09.67 +22 25 55.1 19.1 R 104 – San Marcello Pistoiese MPS 725701
2016 08 23.87195 16 54 07.01 +22 25 52.0 19.2 R 104 – San Marcello Pistoiese MPS 725701
2016 08 23.87572 16 54 05.96 +22 25 55.7 20.1 V G40 – Slooh.com Canary Islands Observatory MPS 725701
2016 08 23.87818 16 54 04.79 +22 25 48.4   595 – Farra d'Isonzo MPS 725701
2016 08 23.88671 16 54 01.69 +22 25 44.3 19.2 R 104 – San Marcello Pistoiese MPS 725701
2016 08 23.89238 16 53 59.68 +22 25 41.3 19.5 R 203 – GiaGa Observatory MPS 725701
2016 08 23.89693 16 53 58.05 +22 25 39.4   595 – Farra d'Isonzo MPS 725701
2016 08 23.90472 16 53 55.27 +22 25 35.5   204 – Schiaparelli Observatory MPS 725701
2016 08 23.91426 16 53 51.87 +22 25 31.6   204 – Schiaparelli Observatory MPS 725701
2016 08 23.91641 16 53 51.22 +22 25 29.4   J95 – Great Shefford MPS 725701
2016 08 23.92115 16 53 49.53 +22 25 27.5   J95 – Great Shefford MPS 725701
2016 08 23.92378 16 53 48.45 +22 25 26.7 20.3 R 204 – Schiaparelli Observatory MPS 725701
2016 08 23.92553 16 53 47.95 +22 25 24.7 20.3 R J95 – Great Shefford MPS 725701
2016 08 24.15347 16 52 27.07 +22 23 46.3 20.4 V 691 – Steward Observatory, Kitt Peak-Spacewatch MPS 725701
2016 08 24.15574 16 52 26.24 +22 23 44.4 20.2 V 691 – Steward Observatory, Kitt Peak-Spacewatch MPS 725701
2016 08 24.80358 16 48 36.91 +22 18 23.1   246 – Klet Observatory-KLENOT MPS 867659
2016 08 24.80457 16 48 36.13 +22 18 24.2   246 – Klet Observatory-KLENOT MPS 725701
2016 08 24.80601 16 48 35.63 +22 18 22.5   246 – Klet Observatory-KLENOT MPS 725701
2016 08 24.84373 16 48 22.02 +22 18 04.9 19.6 R 160 – Castelmartini MPS 725701
2016 08 24.84633 16 48 21.07 +22 18 03.2 19.4 R 160 – Castelmartini MPS 725701
2016 08 24.84918 16 48 20.07 +22 18 01.7   160 – Castelmartini MPS 725701
2016 08 24.85046 16 48 19.71 +22 18 00.8 19.8 R K51 – Osservatorio del Celado, Castello Tesino MPS 725701
2016 08 24.85197 16 48 19.09 +22 18 00.2   160 – Castelmartini MPS 725701
2016 08 24.85293 16 48 18.85 +22 17 59.6 19.3 R K51 – Osservatorio del Celado, Castello Tesino MPS 725701
2016 08 24.85503 16 48 18.02 +22 17 58.7 20.1 R 160 – Castelmartini MPS 725701
2016 08 24.85542 16 48 17.96 +22 17 58.2 19.9 R K51 – Osservatorio del Celado, Castello Tesino MPS 725701
2016 08 25.14933 16 46 34.14 +22 15 29.2   691 – Steward Observatory, Kitt Peak-Spacewatch MPS 725701
2016 08 25.15161 16 46 33.27 +22 15 27.7   691 – Steward Observatory, Kitt Peak-Spacewatch MPS 725701
2016 08 25.15391 16 46 32.48 +22 15 26.2   691 – Steward Observatory, Kitt Peak-Spacewatch MPS 725701
2016 08 25.883335 16 42 15.30 +22 08 46.9 20.4 V Z21 – Tenerife-LCO Aqawan A #1 MPS 725701
2016 08 25.885503 16 42 14.48 +22 08 45.8 20.0 V Z21 – Tenerife-LCO Aqawan A #1 MPS 725701
2016 08 25.887638 16 42 13.77 +22 08 44.5 19.9 V Z21 – Tenerife-LCO Aqawan A #1 MPS 725701
2016 08 25.891896 16 42 12.24 +22 08 41.9 20.5 V Z21 – Tenerife-LCO Aqawan A #1 MPS 725701
2016 08 25.894061 16 42 11.45 +22 08 40.4 19.7 V Z21 – Tenerife-LCO Aqawan A #1 MPS 725701
2016 08 25.896219 16 42 10.64 +22 08 39.5 20.3 V Z21 – Tenerife-LCO Aqawan A #1 MPS 725701
2016 08 26.80830 16 36 51.09 +21 59 28.6 20.5 V 033 – Karl Schwarzschild Observatory, Tautenburg MPS 725701
2016 08 26.81074 16 36 50.17 +21 59 27.7 20.3 V 033 – Karl Schwarzschild Observatory, Tautenburg MPS 725701
2016 08 26.81317 16 36 49.31 +21 59 25.9 20.5 V 033 – Karl Schwarzschild Observatory, Tautenburg MPS 725701
2016 08 26.85138 16 36 35.97 +21 59 02.1   J95 – Great Shefford MPS 725701
2016 08 26.85502 16 36 34.66 +21 58 59.7   J95 – Great Shefford MPS 725701
2016 08 26.85896 16 36 33.29 +21 58 56.9 19.8 R J95 – Great Shefford MPS 725701
2016 08 26.87071 16 36 29.01 +21 58 49.0 20.6 V 033 – Karl Schwarzschild Observatory, Tautenburg MPS 725701
2016 08 26.87314 16 36 28.17 +21 58 47.6 20.7 V 033 – Karl Schwarzschild Observatory, Tautenburg MPS 725701
2016 08 26.87557 16 36 27.29 +21 58 46.0 20.9 V 033 – Karl Schwarzschild Observatory, Tautenburg MPS 725701
2016 08 28.074565 16 29 30.31 +21 45 40.8 20.4 V H21 – Astronomical Research Observatory, Westfield MPS 730038
2016 08 28.080611 16 29 28.15 +21 45 36.7 20.0 V H21 – Astronomical Research Observatory, Westfield MPS 730038
2016 08 28.091194 16 29 24.43 +21 45 29.4 20.2 V H21 – Astronomical Research Observatory, Westfield MPS 730038
2016 08 29.086855 16 23 40.68 +21 33 37.0 20.0 V H21 – Astronomical Research Observatory, Westfield MPS 730038
2016 08 29.090749 16 23 39.34 +21 33 34.3 20.3 V H21 – Astronomical Research Observatory, Westfield MPS 730038
2016 08 29.094642 16 23 37.98 +21 33 31.3 20.5 V H21 – Astronomical Research Observatory, Westfield MPS 730038
2016 08 29.098277 16 23 36.71 +21 33 28.3 20.2 V H21 – Astronomical Research Observatory, Westfield MPS 730038
2016 09 03.11208 15 55 22.33 +20 22 17.2 20.2 R 291 – LPL/Spacewatch II MPS 727850
2016 09 03.11350 15 55 21.85 +20 22 16.2 19.8 R 291 – LPL/Spacewatch II MPS 727850
2016 09 03.11493 15 55 21.36 +20 22 14.7 20.1 R 291 – LPL/Spacewatch II MPS 727850
2016 09 03.12185 15 55 19.08 +20 22 07.9 20.1 V 691 – Steward Observatory, Kitt Peak-Spacewatch MPS 727850
2016 09 03.13087 15 55 15.98 +20 21 59.0 20.5 V 691 – Steward Observatory, Kitt Peak-Spacewatch MPS 727850
2016 09 03.13985 15 55 12.93 +20 21 50.4 20.5 V 691 – Steward Observatory, Kitt Peak-Spacewatch MPS 727850
2016 09 04.14482 15 49 39.74 +20 05 30.5   691 – Steward Observatory, Kitt Peak-Spacewatch MPS 727850
2016 09 04.14929 15 49 38.20 +20 05 26.0   691 – Steward Observatory, Kitt Peak-Spacewatch MPS 727850
2016 09 04.15377 15 49 36.65 +20 05 21.4   691 – Steward Observatory, Kitt Peak-Spacewatch MPS 727850
2016 09 05.11803 15 44 18.78 +19 49 08.2 20.9 V 691 – Steward Observatory, Kitt Peak-Spacewatch MPS 727850
2016 09 05.12489 15 44 16.50 +19 49 01.1 20.5 V 691 – Steward Observatory, Kitt Peak-Spacewatch MPS 727850
2016 09 05.13176 15 44 14.13 +19 48 53.4 20.7 V 691 – Steward Observatory, Kitt Peak-Spacewatch MPS 727850
2016 09 06.13344 15 38 45.02 +19 31 28.3 20.5 V 691 – Steward Observatory, Kitt Peak-Spacewatch MPS 727850
2016 09 06.14719 15 38 40.34 +19 31 13.4 20.8 V 691 – Steward Observatory, Kitt Peak-Spacewatch MPS 727850
2016 09 06.16134 15 38 35.77 +19 30 58.3 20.8 V 691 – Steward Observatory, Kitt Peak-Spacewatch MPS 727850
2016 09 10.11511 15 17 03.27 +18 16 44.4 20.6 V 691 – Steward Observatory, Kitt Peak-Spacewatch MPS 727850
2016 09 10.12794 15 16 58.99 +18 16 29.2 20.7 V 691 – Steward Observatory, Kitt Peak-Spacewatch MPS 727850
2016 09 10.14177 15 16 54.37 +18 16 12.3 20.7 V 691 – Steward Observatory, Kitt Peak-Spacewatch MPS 727850
2016 09 12.15710 15 05 54.03 +17 35 04.5 20.0 R 291 – LPL/Spacewatch II MPS 727850
2016 09 12.15942 15 05 53.27 +17 35 01.4 20.0 R 291 – LPL/Spacewatch II MPS 727850
2020 05 27.534573 15 34 10.41 -33 43 27.3 21.2 G 474 – Mount John Observatory, Lake Tekapo MPS 1195884
2020 05 27.540454 15 34 09.43 -33 43 19.6 20.6 G 474 – Mount John Observatory, Lake Tekapo MPS 1195884
2020 05 27.543394 15 34 08.94 -33 43 15.5 21.2 G 474 – Mount John Observatory, Lake Tekapo MPS 1195884
2020 05 27.546334 15 34 08.46 -33 43 11.2 21.2 G 474 – Mount John Observatory, Lake Tekapo MPS 1195884
2020 05 28.518463 15 31 32.29 -33 21 11.0 21.0 G 474 – Mount John Observatory, Lake Tekapo MPS 1195884
2020 05 28.521402 15 31 31.79 -33 21 07.1 21.4 G 474 – Mount John Observatory, Lake Tekapo MPS 1195884
2020 05 28.524344 15 31 31.33 -33 21 03.2 21.1 G 474 – Mount John Observatory, Lake Tekapo MPS 1195884
2020 05 28.527283 15 31 30.84 -33 20 59.4 20.7 G 474 – Mount John Observatory, Lake Tekapo MPS 1195884
2020 06 14.29110 15 00 44.944 -27 51 33.64 22.0 w F51 – Pan-STARRS 1, Haleakala MPS 1201211
2020 06 14.30141 15 00 44.232 -27 51 23.99 22.1 w F51 – Pan-STARRS 1, Haleakala MPS 1201211
2020 06 14.31173 15 00 43.467 -27 51 13.63 22.0 w F51 – Pan-STARRS 1, Haleakala MPS 1201211